Regional Weather Roundup
Issued by NWS Raleigh/Durham, NC

Home | Current Version | Previous Version | Text Only | Print | Product List | Glossary On
Versions: 1 2 3 4 5 6 7 8 9 10 11 12 13 14 15 16 17 18 19 20 21 22 23 24 25 26 27 28 29 30 31 32 33 34 35 36 37 38 39 40 41 42 43 44 45 46 47 48 49 50
000
ASUS42 KRAH 031810
RWRRAH
NORTH CAROLINA WEATHER ROUNDUP
NATIONAL WEATHER SERVICE RALEIGH NC
200 PM EDT FRI APR 03 2020

NOTE: "FAIR" INDICATES FEW OR NO CLOUDS BELOW 12,000 FEET WITH NO
SIGNIFICANT WEATHER AND/OR OBSTRUCTIONS TO VISIBILITY.

NCZ001-053-055-056-065-067-031900-
WESTERN NORTH CAROLINA

CITY           SKY/WX    TMP DP  RH WIND       PRES   REMARKS
ASHEVILLE      FAIR      67  23  19 N14G22    30.02F
JEFFERSON      FAIR      56  19  24 NW14G22   30.00F
MORGANTON      FAIR      71   8   8 W3        30.00F
HICKORY        FAIR      70  27  20 NW12      29.95F
WILKESBORO     NOT AVBL
RUTHERFORDTON  FAIR      72  30  21 NW6       29.98F
MOUNT AIRY     FAIR      67  18  15 NW10      29.97F
BOONE            N/A     58  14  17 NW18G25   30.01F
$$

NCZ021-022-025-041-071-084-088-031900-
CENTRAL NORTH CAROLINA

CITY           SKY/WX    TMP DP  RH WIND       PRES   REMARKS
CHARLOTTE      FAIR      69  34  27 W9        29.97F
GREENSBORO     FAIR      67  24  19 NW15      29.93F
WINSTON-SALEM  FAIR      67  21  17 NW9G17    29.95F
RALEIGH-DURHAM FAIR      67  22  18 NW12G24   29.89F
FORT BRAGG     FAIR      70  21  16 NW16G24   29.88F
FAYETTEVILLE   FAIR      69  22  16 N14G24    29.90F
BURLINGTON     FAIR      70  18  13 NW14G23   29.92F
ROXBORO        FAIR      64  21  19 W16G23    29.92F
HENDERSON      FAIR      63  17  16 NW12G21   29.87F
LOUISBURG      FAIR      64  21  19 NW15G23   29.89F
LAURINBURG     FAIR      70  29  21 NW12G22   29.92F
$$

NCZ011-015-027-028-043-044-047-080-103-031900-
NORTHEASTERN NORTH CAROLINA

CITY           SKY/WX    TMP DP  RH WIND       PRES   REMARKS
ROCKY MT-WILSO FAIR      68  24  19 NW15G23   29.85F
GREENVILLE     FAIR      66  21  18 NW8G17    29.85F
WASHINGTON     FAIR      67  23  19 W10G21    29.82F
ELIZABETH CITY FAIR      68  29  23 NW16G29   29.77F
MANTEO         FAIR      62  32  32 NW13G23   29.77F
CAPE HATTERAS  FAIR      65  36  34 NW15G29   29.78F
$$

NCZ078-087-090-091-093-098-101-031900-
SOUTHEASTERN NORTH CAROLINA

CITY           SKY/WX    TMP DP  RH WIND       PRES   REMARKS
GOLDSBORO      FAIR      69  25  19 W17       29.84F
KINSTON        SUNNY     68  23  18 NW13G22   29.85F
KENANSVILLE    FAIR      68  25  19 NW17      29.86F
NEW BERN       FAIR      67  29  24 N13G22    29.83F
CHERRY POINT   FAIR      69  29  22 NW17G25   29.83F
BEAUFORT       FAIR      68  32  26 NW12      29.81F
JACKSONVILLE   FAIR      68  25  19 NW15G25   29.84F
WILMINGTON     FAIR      71  26  18 NW16G26   29.86F
$$




USA.gov is the U.S. government's official web portal to all federal, state and local government web resources and services.